Location: *
(51.5000°N, 0.1100°W)
Time: 00:58:53
(UTC+00:00)

MSX - Pass Details

Date: 08 August 2024
Orbit: 895 x 904 km, 99.0° (Epoch: 09 September)

Event Time Altitude Azimuth Distance (km) Brightness Sun altitude
Rises 00:15:06 0° 28° (NNE) 3,544 8.0 -22.4°
Reaches altitude 10° 00:18:47 10° 52° (NE) 2,596 6.8 -22.4°
Maximum altitude 00:21:54 15° 85° (E) 2,268 6.0 -22.4°
Enters shadow 00:24:58 10° 117° (ESE) 2,577 6.0 -22.3°
